[[{"header":{"parameterUnit":"m.s-1","parameterCategory":1,"la1":30.2991,"la2":30.254,"lo1":-89.0895,"lo2":-89.0444,"dx":0.0017,"dy":0.0017,"nx":28,"ny":28,"refTime":"2022-12-14T09:00:00:Z","depth":0,"parameterNumber":2,"parameterNumberName":"U-component_of_WINDS"},"data":[0,0,0,0,0,0,0,0,0,0,0,0,0,0,0,0,0,0,0,0,0,0,0,0,0,0,0,0,0,0,0,0,0,0,0,0,0,0,0,0,0,0,0,0,0,0,0,0,0,0,0,0,0,0,0,0,0,0,3.5071,3.5072,0,3.5215,3.5216,3.5218,3.5204,3.5202,3.52,3.5198,3.5345,3.5351,3.5357,0,0,0,0,0,0,0,0,0,0,0,0,0,3.4782,3.4788,3.507,3.5072,3.5074,3.5214,3.5216,3.5218,3.5205,3.5202,3.5199,3.5197,3.5343,3.535,3.5357,0,0,0,0,0,0,0,0,0,0,0,0,0,3.4915,3.4789,3.507,3.5084,3.5087,3.5214,3.5216,3.5219,3.5205,3.5202,3.5199,3.5196,3.5341,3.5349,3.5358,3.548,0,0,3.5386,3.5389,0,0,0,0,0,0,0,0,3.4908,3.4926,3.508,3.5083,3.5087,3.5188,3.5169,3.5306,3.5206,3.516,3.5198,3.5194,3.5295,3.5308,3.5342,3.5487,3.5493,3.5386,3.5392,3.5396,3.5398,0,0,0,0,0,0,0,3.4898,3.4919,3.5127,3.5083,3.5087,3.5083,3.5098,3.5195,3.5245,3.5164,3.5164,3.5181,3.5296,3.5334,3.5346,3.5496,3.5386,3.5394,3.54,3.5403,3.5746,3.5749,0,0,0,0,0,0,3.4886,3.4912,3.5123,3.5132,3.4987,3.5091,3.5108,3.5159,3.5244,3.5253,3.5183,3.518,3.532,3.5335,3.5351,3.5497,3.5396,3.5404,3.5409,3.5742,3.5747,3.5751,0,0,0,0,0,0,3.488,3.4905,3.5117,3.5022,3.5048,3.5099,3.5157,3.5164,3.5201,3.5258,3.5267,3.5212,3.5318,3.5338,3.5448,3.5502,3.5408,3.5416,3.5738,3.5743,3.5749,3.5793,0,0,0,0,0,0,3.4872,3.4903,3.495,3.5023,3.5054,3.5212,3.516,3.5169,3.5216,3.5212,3.5288,3.5297,3.5317,3.5434,3.5457,3.5513,3.5423,3.5733,3.574,3.5747,3.5787,3.5799,3.581,0,0,0,0,0,3.4861,3.4957,3.4952,3.4978,3.5114,3.5215,3.5233,3.5254,3.5221,3.5268,3.5305,3.5294,3.5493,3.5446,3.5471,3.5531,3.573,3.5738,3.5746,3.5782,3.5797,3.581,0,0,0,0,0,0,3.4889,3.4967,3.4963,3.5085,3.5144,3.5213,3.5273,3.527,3.5339,3.5333,3.5356,3.5373,3.5483,3.5518,3.5464,3.5652,3.5607,3.5621,3.5625,3.564,3.5652,3.564,3.5431,0,0,0,0,0,3.491,3.4986,3.505,3.5151,3.5181,3.5222,3.5267,3.5279,3.534,3.5365,3.541,3.547,3.5546,3.5595,3.5668,3.5792,3.5807,3.5846,3.5857,3.5867,3.5878,3.5944,3.5961,3.5778,3.5778,3.5778,0,0,3.4953,3.5004,3.5051,3.5158,3.5205,3.5283,3.5243,3.5328,3.5385,3.5378,3.5483,3.5519,3.5587,3.5704,3.5758,3.5737,3.5932,3.5877,3.5884,3.589,3.5954,3.5972,3.5987,3.5784,3.5783,3.5782,0,0,3.507,3.5118,3.5206,3.5254,3.5325,3.5352,3.5374,3.5444,3.5467,3.5573,3.5569,3.5638,3.5768,3.5817,3.5858,3.5993,3.5985,3.6017,3.6077,3.6141,3.6156,3.6168,3.6215,3.6231,3.6028,3.6028,3.6028,0,3.5114,3.5231,3.5253,3.5338,3.5384,3.5381,3.5471,3.5516,3.5607,3.5639,3.5615,3.5777,3.5823,3.595,3.5983,3.6018,3.6042,3.6007,3.6152,3.6165,3.6177,3.6221,3.6239,3.6031,3.6031,3.6031,3.603,0,3.5281,3.5362,3.5426,3.5514,3.5568,3.5655,3.5688,3.574,3.5747,3.5776,3.5884,3.5939,3.6022,3.6054,3.6061,3.6182,3.6166,3.6147,3.6101,3.6197,3.6239,3.6257,3.6036,3.6035,3.6034,3.6033,0,0,3.5419,3.5518,3.554,3.5579,3.5658,3.5721,3.5807,3.5889,3.5932,3.5996,3.6067,3.6178,3.616,3.6207,3.622,3.6277,3.6378,3.625,3.6252,3.627,3.6512,3.6524,3.6544,3.6374,3.6377,3.638,3.6505,0,3.5543,3.5696,3.5717,3.5852,3.5926,3.5924,3.5999,3.6055,3.6085,3.6152,3.6184,3.6261,3.6233,3.6261,3.6317,3.6353,3.6426,3.6345,3.6439,3.6442,3.642,3.6566,3.658,3.6696,3.6522,3.6525,3.6527,0,3.5708,3.5775,3.5917,3.5983,3.6015,3.6082,3.6158,3.6223,3.6286,3.6303,3.6355,3.6361,3.645,3.6402,3.6523,3.6467,3.6507,3.6531,3.6536,3.6544,3.6489,3.6576,3.6733,3.675,3.6553,3.6551,3.6549,0,3.5791,3.5918,3.6018,3.6052,3.6133,3.618,3.6216,3.6276,3.6323,3.6389,3.6419,3.6495,3.6536,3.6595,3.662,3.6583,3.6739,3.6694,3.6755,3.6754,3.6786,3.6783,3.695,3.6816,3.6815,3.6815,3.6815,0,3.5926,3.6013,3.6057,3.6119,3.6215,3.6239,3.6334,3.6368,3.6421,3.6488,3.6492,3.6555,3.6586,3.6654,3.6675,3.6771,3.679,3.6806,3.681,3.6804,3.6802,3.6829,3.6821,3.682,3.6819,3.6818,3.6817,0,3.6036,3.6069,3.6178,3.6246,3.6265,3.6333,3.639,3.645,3.6479,3.6564,3.6586,3.6631,3.6711,3.6743,3.6841,3.6855,3.6965,3.6964,3.6943,3.6944,3.7002,3.6995,3.719,3.7216,3.7067,3.7068,3.7069,0,3.6119,3.6185,3.6259,3.6305,3.6342,3.6416,3.6463,3.6489,3.6539,3.6615,3.6665,3.6745,3.681,3.6938,3.6979,3.7053,3.7053,3.7116,3.7064,3.7056,3.7051,3.7046,3.7052,3.7125,3.7127,3.7128,3.7129,0,3.6261,3.6274,3.6343,3.6418,3.6475,3.6535,3.6593,3.663,3.6665,3.6721,3.6802,3.6853,3.6952,3.7031,3.7108,3.7144,3.7142,3.7145,3.7163,3.7157,3.7141,3.7148,3.6967,3.714,3.7139,3.7138,3.7137,3.7137,3.6359,3.6417,3.6478,3.6554,3.66,3.6655,3.6713,3.6749,3.6818,3.6901,3.6912,3.6999,3.7059,3.7162,3.7201,3.7269,3.7253,3.7279,3.7285,3.729,3.7293,3.7132,3.7284,3.7283,3.7283,3.7283,3.7283,0,3.65,3.6538,3.6609,3.669,3.6749,3.6743,3.6807,3.6857,3.6933,3.699,3.7053,3.7146,3.7222,3.727,3.7346,3.7391,3.7392,3.741,3.7406,3.7414,3.7305,3.7281,3.7408,3.7408,3.7408,3.7408,3.7408,3.7408,3.658,3.6677,3.6697,3.6817,3.6855,3.694,3.6977,3.7027,3.7072,3.7175,3.7238,3.7269,3.7321,3.7401,3.747,3.7482,3.7508,3.7528,3.7538,3.7435,3.7422,3.7409,3.7387,3.7534,3.7534,3.7641,3.7642,3.7642]},{"header":{"parameterUnit":"m.s-1","parameterCategory":1,"la1":30.2991,"la2":30.254,"lo1":-89.0895,"lo2":-89.0444,"dx":0.0017,"dy":0.0017,"nx":28,"ny":28,"refTime":"2022-12-14T09:00:00:Z","depth":0,"parameterNumber":3,"parameterNumberName":"V-component_of_WINDS"},"data":[0,0,0,0,0,0,0,0,0,0,0,0,0,0,0,0,0,0,0,0,0,0,0,0,0,0,0,0,0,0,0,0,0,0,0,0,0,0,0,0,0,0,0,0,0,0,0,0,0,0,0,0,0,0,0,0,0,0,-2.2054,-2.2055,0,-2.2152,-2.2153,-2.2154,-2.2134,-2.2133,-2.2131,-2.2129,-2.223,-2.2235,-2.2239,0,0,0,0,0,0,0,0,0,0,0,0,0,-2.1851,-2.1855,-2.2054,-2.2055,-2.2057,-2.2152,-2.2153,-2.2154,-2.2135,-2.2133,-2.213,-2.2128,-2.2229,-2.2234,-2.2239,0,0,0,0,0,0,0,0,0,0,0,0,0,-2.1943,-2.1856,-2.2054,-2.2058,-2.2059,-2.2152,-2.2153,-2.2155,-2.2135,-2.2132,-2.213,-2.2127,-2.2227,-2.2234,-2.224,-2.2334,0,0,-2.226,-2.2263,0,0,0,0,0,0,0,0,-2.1938,-2.195,-2.2056,-2.2058,-2.206,-2.2128,-2.2119,-2.2215,-2.2136,-2.2107,-2.2129,-2.2126,-2.2199,-2.2207,-2.2232,-2.2339,-2.2344,-2.2261,-2.2265,-2.2268,-2.2269,0,0,0,0,0,0,0,-2.1931,-2.1946,-2.2093,-2.2058,-2.206,-2.2055,-2.2066,-2.2137,-2.2167,-2.2109,-2.2108,-2.2119,-2.2199,-2.2225,-2.2234,-2.2345,-2.2261,-2.2266,-2.227,-2.2273,-2.2535,-2.2537,0,0,0,0,0,0,-2.1923,-2.1941,-2.209,-2.2096,-2.1991,-2.2061,-2.2073,-2.2109,-2.2166,-2.2172,-2.2122,-2.2118,-2.2216,-2.2226,-2.2237,-2.2351,-2.2267,-2.2274,-2.2277,-2.2532,-2.2535,-2.2538,0,0,0,0,0,0,-2.1919,-2.1937,-2.2086,-2.2018,-2.2037,-2.2068,-2.2109,-2.2112,-2.2139,-2.2175,-2.2181,-2.2143,-2.2214,-2.2228,-2.231,-2.2355,-2.2277,-2.2283,-2.2528,-2.2533,-2.2537,-2.258,0,0,0,0,0,0,-2.1913,-2.1935,-2.1971,-2.2019,-2.204,-2.2157,-2.2111,-2.2116,-2.215,-2.2146,-2.2197,-2.2203,-2.2213,-2.2301,-2.2317,-2.2362,-2.2288,-2.2524,-2.253,-2.2535,-2.2575,-2.2586,-2.2595,0,0,0,0,0,-2.1906,-2.198,-2.1973,-2.1991,-2.2086,-2.216,-2.2172,-2.2182,-2.2153,-2.219,-2.2214,-2.2201,-2.2347,-2.2309,-2.2327,-2.2375,-2.2521,-2.2528,-2.2535,-2.2571,-2.2584,-2.2595,0,0,0,0,0,0,-2.1937,-2.1986,-2.198,-2.2071,-2.2111,-2.2156,-2.2202,-2.2195,-2.2245,-2.2239,-2.225,-2.2261,-2.2345,-2.2368,-2.2325,-2.247,-2.243,-2.2441,-2.2451,-2.2464,-2.2474,-2.2466,-2.2293,0,0,0,0,0,-2.1955,-2.201,-2.205,-2.2127,-2.2147,-2.2172,-2.2204,-2.2208,-2.225,-2.2267,-2.2297,-2.2339,-2.2394,-2.243,-2.2483,-2.2578,-2.2589,-2.262,-2.263,-2.2638,-2.2647,-2.2699,-2.2714,-2.2561,-2.2561,-2.2561,0,0,-2.1992,-2.2025,-2.206,-2.2134,-2.2166,-2.2223,-2.2186,-2.2248,-2.2291,-2.2277,-2.2356,-2.2379,-2.2427,-2.2516,-2.2556,-2.2538,-2.2692,-2.2647,-2.2653,-2.2658,-2.2708,-2.2722,-2.2735,-2.2565,-2.2565,-2.2564,0,0,-2.2088,-2.2119,-2.2186,-2.2219,-2.2267,-2.2282,-2.2298,-2.2344,-2.2359,-2.2439,-2.2429,-2.248,-2.2575,-2.2609,-2.2639,-2.2748,-2.2738,-2.2765,-2.2817,-2.2868,-2.288,-2.289,-2.2929,-2.2943,-2.2774,-2.2774,-2.2774,0,-2.2128,-2.2213,-2.2222,-2.2285,-2.2318,-2.2307,-2.2376,-2.2407,-2.247,-2.2493,-2.2471,-2.259,-2.2621,-2.2718,-2.2745,-2.2769,-2.2788,-2.2759,-2.2877,-2.2888,-2.2898,-2.2935,-2.295,-2.2777,-2.2777,-2.2776,-2.2776,0,-2.226,-2.232,-2.2368,-2.2429,-2.2467,-2.2533,-2.2551,-2.2589,-2.259,-2.2608,-2.2689,-2.2726,-2.2786,-2.2809,-2.2811,-2.2906,-2.2893,-2.2874,-2.2835,-2.2915,-2.2951,-2.2965,-2.2781,-2.278,-2.2779,-2.2778,0,0,-2.2379,-2.2443,-2.2461,-2.2488,-2.2541,-2.2587,-2.2652,-2.271,-2.2743,-2.2786,-2.2841,-2.2922,-2.2904,-2.2938,-2.2943,-2.2988,-2.3072,-2.2963,-2.2964,-2.2982,-2.3179,-2.3194,-2.321,-2.3065,-2.3068,-2.307,-2.3175,0,-2.2481,-2.2595,-2.2604,-2.2707,-2.2762,-2.2752,-2.2809,-2.2847,-2.2865,-2.2915,-2.2935,-2.2992,-2.2965,-2.2985,-2.3029,-2.3052,-2.3111,-2.3045,-2.3117,-2.3119,-2.3106,-2.3228,-2.3244,-2.3341,-2.3189,-2.3192,-2.3193,0,-2.2614,-2.2661,-2.2769,-2.2813,-2.2837,-2.2888,-2.2942,-2.2989,-2.3032,-2.3042,-2.308,-2.3079,-2.3146,-2.3104,-2.3197,-2.3151,-2.3181,-2.3197,-2.3201,-2.3209,-2.3161,-2.3239,-2.3373,-2.3387,-2.3215,-2.3213,-2.3212,0,-2.269,-2.2781,-2.2857,-2.2881,-2.2934,-2.297,-2.2994,-2.3034,-2.3069,-2.3116,-2.3139,-2.3193,-2.3224,-2.3266,-2.328,-2.3248,-2.3372,-2.3331,-2.3383,-2.3383,-2.341,-2.3408,-2.355,-2.3429,-2.3429,-2.3428,-2.3428,0,-2.2803,-2.2869,-2.2892,-2.2939,-2.3014,-2.3024,-2.3097,-2.3119,-2.3155,-2.3206,-2.3202,-2.325,-2.3265,-2.3317,-2.3328,-2.3403,-2.3417,-2.3427,-2.3429,-2.3428,-2.3426,-2.3448,-2.3442,-2.3432,-2.3431,-2.3431,-2.343,0,-2.2901,-2.2919,-2.3002,-2.3045,-2.3057,-2.311,-2.3147,-2.3193,-2.321,-2.3275,-2.3291,-2.3318,-2.3378,-2.3396,-2.3468,-2.3476,-2.3564,-2.356,-2.3549,-2.355,-2.36,-2.3596,-2.3762,-2.3784,-2.3647,-2.3649,-2.365,0,-2.2972,-2.3022,-2.3071,-2.3105,-2.313,-2.3184,-2.3219,-2.3231,-2.3267,-2.332,-2.3359,-2.3418,-2.3466,-2.3563,-2.3589,-2.3645,-2.3642,-2.3696,-2.365,-2.3647,-2.3643,-2.364,-2.3646,-2.3705,-2.3707,-2.3708,-2.3709,0,-2.3095,-2.3101,-2.3151,-2.3205,-2.3246,-2.3289,-2.333,-2.3358,-2.3376,-2.3417,-2.3478,-2.3515,-2.3589,-2.3648,-2.3704,-2.3729,-2.3722,-2.3723,-2.3738,-2.3737,-2.3729,-2.3734,-2.3573,-2.3719,-2.3718,-2.3717,-2.3717,-2.3716,-2.3182,-2.3227,-2.3268,-2.3324,-2.3356,-2.3394,-2.3439,-2.3461,-2.3512,-2.3572,-2.3576,-2.3642,-2.3684,-2.3758,-2.3786,-2.3838,-2.3823,-2.3844,-2.385,-2.3855,-2.3859,-2.372,-2.3849,-2.3848,-2.3848,-2.3848,-2.3848,0,-2.3306,-2.3331,-2.3383,-2.344,-2.3484,-2.3473,-2.3518,-2.3556,-2.3614,-2.3653,-2.37,-2.377,-2.3827,-2.3857,-2.3914,-2.395,-2.3949,-2.3965,-2.3962,-2.3968,-2.387,-2.3852,-2.3965,-2.3965,-2.3965,-2.3965,-2.3965,-2.3965,-2.3375,-2.345,-2.3461,-2.3552,-2.3577,-2.3642,-2.3668,-2.3704,-2.3735,-2.3813,-2.386,-2.3879,-2.3915,-2.3975,-2.4027,-2.4034,-2.4056,-2.4074,-2.408,-2.3987,-2.3975,-2.3964,-2.3947,-2.4078,-2.4078,-2.4174,-2.4175,-2.4175]}]]